Location: Unspecified
(0.0000°N, 1.0000°E)
Time: 23:39:51
(UTC+01:00)

X-37B - Pass Details

Date: 02 October 2020
Orbit: 382 x 392 km, 45.0° (Epoch: 15 October)

Event Time Altitude Azimuth Distance (km) Brightness Sun altitude
Exits shadow 06:21:37 30° 169° (SSE) 706 2.0 -20.9°
Drops below altitude 10° 06:23:30 10° 151° (SSE) 1,401 3.8 -20.4°
Sets 06:25:37 0° 145° (SE) 2,258 5.0 -19.9°
